TimeEST,TemperatureF,Dew PointF,Humidity,Sea Level PressureIn,VisibilityMPH,Wind Direction,Wind SpeedMPH,Gust SpeedMPH,PrecipitationIn,Events,Conditions,WindDirDegrees,DateUTC
12:16 AM,66.2,64.4,94,30.12,7.0,North,8.1,-,N/A,,Overcast,350,2012-11-19 05:16:00
12:43 AM,66.2,62.6,88,30.11,7.0,North,10.4,-,N/A,,Overcast,350,2012-11-19 05:43:00
12:53 AM,66.9,63.0,87,30.11,8.0,North,9.2,-,N/A,,Mostly Cloudy,350,2012-11-19 05:53:00
1:53 AM,66.0,62.1,87,30.10,8.0,NNW,8.1,-,N/A,,Mostly Cloudy,340,2012-11-19 06:53:00
2:25 AM,64.4,62.6,94,30.10,8.0,North,6.9,-,N/A,,Scattered Clouds,350,2012-11-19 07:25:00
2:53 AM,64.9,61.0,87,30.10,8.0,North,6.9,-,N/A,,Clear,350,2012-11-19 07:53:00
3:53 AM,64.0,60.1,87,30.10,8.0,NNW,8.1,-,N/A,,Clear,340,2012-11-19 08:53:00
4:53 AM,63.0,60.1,90,30.11,9.0,North,9.2,-,N/A,,Clear,350,2012-11-19 09:53:00
5:53 AM,62.1,59.0,90,30.12,9.0,North,8.1,-,N/A,,Clear,350,2012-11-19 10:53:00
6:53 AM,61.0,57.9,90,30.13,7.0,NNW,6.9,-,N/A,,Clear,340,2012-11-19 11:53:00
7:53 AM,63.0,57.9,84,30.14,8.0,North,10.4,-,N/A,,Clear,350,2012-11-19 12:53:00
8:53 AM,66.9,55.9,68,30.14,10.0,North,8.1,-,N/A,,Clear,360,2012-11-19 13:53:00
9:53 AM,70.0,55.9,61,30.14,10.0,North,10.4,-,N/A,,Clear,350,2012-11-19 14:53:00
10:53 AM,68.0,57.9,70,30.14,10.0,NW,9.2,-,N/A,,Clear,320,2012-11-19 15:53:00
11:53 AM,70.0,55.9,61,30.12,10.0,NNW,9.2,-,N/A,,Clear,340,2012-11-19 16:53:00
12:53 PM,71.1,55.9,59,30.08,6.0,WNW,8.1,-,N/A,,Haze,300,2012-11-19 17:53:00
1:53 PM,73.9,57.0,55,30.05,10.0,NNW,10.4,-,N/A,,Clear,330,2012-11-19 18:53:00
2:53 PM,73.9,57.9,57,30.04,6.0,NNW,13.8,-,N/A,,Haze,330,2012-11-19 19:53:00
3:53 PM,72.0,57.9,61,30.04,8.0,NW,12.7,-,N/A,,Clear,320,2012-11-19 20:53:00
4:53 PM,68.0,57.9,70,30.05,7.0,NNW,11.5,-,N/A,,Clear,330,2012-11-19 21:53:00
5:53 PM,64.0,57.0,78,30.06,7.0,North,8.1,-,N/A,,Clear,350,2012-11-19 22:53:00
6:53 PM,63.0,57.0,81,30.07,8.0,NNW,9.2,-,N/A,,Clear,340,2012-11-19 23:53:00
7:53 PM,63.0,57.0,81,30.08,10.0,NNW,13.8,-,N/A,,Mostly Cloudy,340,2012-11-20 00:53:00
8:53 PM,62.1,55.9,80,30.09,10.0,NNW,11.5,-,N/A,,Overcast,340,2012-11-20 01:53:00
9:53 PM,62.1,55.9,80,30.08,10.0,NNW,9.2,-,N/A,,Overcast,340,2012-11-20 02:53:00
10:53 PM,63.0,55.9,78,30.07,10.0,NNW,9.2,-,N/A,,Overcast,340,2012-11-20 03:53:00
11:31 PM,62.6,57.2,82,30.06,10.0,NNW,9.2,-,N/A,,Overcast,340,2012-11-20 04:31:00
11:53 PM,62.1,57.0,84,30.06,10.0,NW,11.5,-,N/A,,Overcast,320,2012-11-20 04:53:00